Location: *
(32.8140°S, 174.6161°E)
Time: 03:28:41
(UTC+00:00)

Cosmos 1459 Rocket - Pass Details

Date: 10 December 2019
Orbit: 936 x 1001 km, 83.0° (Epoch: 19 January)

Event Time Altitude Azimuth Distance (km) Brightness Sun altitude
Rises 14:24:54 0° 193° (SSW) 3,656 7.6 -26.1°
Reaches altitude 10° 14:27:28 10° 198° (SSW) 2,712 6.8 -25.8°
Maximum altitude 14:33:24 50° 271° (W) 1,229 4.2 -25.1°
Enters shadow 14:33:46 49° 282° (WNW) 1,238 4.2 -25.1°
